Location: Heiligenberg
(48.5381°N, 7.3897°E)
Time: 21:55:32
(UTC+00:00)

Cosmos 1980 - Pass Details

Date: 26 May 2022
Orbit: 840 x 846 km, 71.0° (Epoch: 03 July)

Event Time Altitude Azimuth Distance (km) Brightness Sun altitude
Exits shadow 00:20:08 35° 179° (S) 1,323 4.2 -19.4°
Maximum altitude 00:22:24 62° 112° (ESE) 940 3.8 -19.3°
Drops below altitude 10° 00:27:59 10° 33° (NNE) 2,466 7.2 -19.1°
Sets 00:30:27 0° 31° (NNE) 3,405 8.3 -19.0°
